Location: Fort Worth, Tx
(32.7431°N, 97.3695°W)
Time: 17:35:12
(UTC-05:00)

X-37B - Pass Details

Date: 06 December 2022
Orbit: 277 x 277 km, 45.0° (Epoch: 01 November)

Event Time Altitude Azimuth Distance (km) Brightness Sun altitude
Rises 19:58:41 0° 264° (W) 1,904 5.7 -19.6°
Reaches altitude 10° 20:00:53 10° 284° (WNW) 1,094 3.8 -20.1°
Enters shadow 20:02:05 17° 311° (NW) 792 2.5 -20.3°
